Vertical_Velocity
-2 -8 0 29 2 -9 -4 2 0 1 -2 -3 -1 1 4 -1 -6 -0 3 4 2 8 -2 3 1 -5 -1 5 2 -1 2 2 2 3 3 0 -1 1 0 -1 -3 -1 0 -0
-3 -3 16 0 -5 -4 -3 0 6 -4 -2 1 -5 2 -1 0 2 -1 -1 -5 1 -2 2 1 6 -2 9 -4 15 -1 3 0 3 0 2 3 0 -0 -0 -2 -2 -3 -1 -2
2 11 3 3 -3 -1 0 5 3 -4 -7 -5 -0 3 -0 3 7 -3 -3 -1 -5 2 3 3 2 7 2 -1 11 16 20 6 3 -1 1 -1 1 0 -1 -3 -1 -2 -1 -0
-6 -1 3 3 1 -2 -3 8 -1 -3 -6 -1 1 -5 -4 1 5 1 -5 -4 1 1 1 3 6 7 8 -6 -0 -1 3 -2 -0 -2 -0 3 3 2 -0 0 -1 -1 -2 -1
16 8 5 0 12 2 13 -2 1 -1 -2 -2 -1 -4 7 -1 -7 7 7 7 3 0 2 1 2 55 5 -13 2 -2 -5 -3 0 1 -2 -0 0 -1 1 1 -0 -2 -1 3
-1 0 -1 9 1 3 1 -1 2 1 -0 -17 3 -1 6 10 18 16 17 12 3 10 8 6 4 -12 -2 -1 -0 -3 -4 -2 0 3 2 3 -0 -3 3 3 3 -1 -1 -0
8 4 3 6 3 -3 -0 -1 -2 -0 -9 -4 1 -3 10 5 2 1 -4 -2 -2 -12 -7 3 7 4 5 -1 -3 3 4 -2 -0 0 -4 1 2 2 4 1 0 1 -0 0
2 -3 6 4 5 5 10 3 4 6 -6 9 8 -11 -4 -4 1 1 5 -2 3 -1 -9 -9 -9 -9 -4 -2 -2 -3 1 -1 -3 -1 9 7 9 12 7 7 12 6 -0 2
7 -2 6 5 7 4 -0 -20 11 -1 -1 2 -2 -8 4 -5 1 2 2 -0 3 3 5 -2 -0 6 1 3 0 9 -4 -6 3 8 12 8 3 10 6 4 -0 2 3 -2
6 4 3 5 10 -1 1 13 -5 -9 -4 -2 -4 -3 -3 -0 -3 1 1 1 -1 -1 3 3 -5 1 4 6 5 4 3 10 3 9 10 8 8 5 4 -1 1 3 5 -2
8 9 2 8 -0 3 4 -5 -8 5 -6 3 2 -9 4 2 0 -1 -2 1 -1 -1 2 3 3 -1 3 -1 3 1 0 4 5 -1 4 6 12 9 3 -2 -2 9 1 -3
5 7 4 -1 3 3 1 -2 3 -10 -5 6 3 -4 -6 -3 0 1 2 -0 1 1 1 2 2 3 2 3 -0 -1 -3 -2 -3 4 4 5 6 8 2 4 6 1 -0 2
6 2 2 3 5 1 -2 -1 0 -1 6 -3 9 -14 -0 1 3 4 1 -0 1 -0 0 0 1 3 1 0 2 -1 -3 -1 3 6 10 9 18 12 14 8 7 2 3 3
3 4 5 2 2 4 1 -0 2 1 5 6 -9 -2 -1 1 -0 1 -3 -2 -1 1 -1 -2 1 1 0 -1 -1 -1 -1 -1 1 -1 -1 1 8 18 9 1 1 3 -0 -1
4 7 3 5 0 2 2 2 -0 3 -1 -1 2 -2 -2 -5 -4 -1 3 -1 1 2 1 -2 -2 -0 1 1 1 -1 -3 -2 -4 -2 1 3 16 7 2 7 4 0 1 -2
-0 2 5 8 1 5 2 3 0 5 -1 1 -5 -4 2 0 1 -2 -1 1 -0 -2 2 3 3 1 -3 -3 2 1 -2 -5 -7 -3 1 1 4 -11 -4 12 12 -1 2 -2
4 -0 5 1 -4 1 -1 2 2 5 -1 5 -5 -1 -1 1 -2 1 -0 -3 -2 -0 -3 -1 0 2 0 -1 1 -3 -4 -2 -2 -0 2 4 5 3 -4 -7 -1 -6 -4 -2
3 -2 -2 -3 8 -10 -5 2 2 -1 2 -0 4 -3 -2 -0 2 1 -0 -3 -5 -0 -1 -1 -2 -1 -1 -0 3 2 -4 -4 -3 -1 1 -0 3 5 -1 -4 -5 0 -2 -3
2 -3 -3 -8 1 -1 -4 -2 1 2 -3 2 2 -1 -0 -2 2 -4 0 2 -1 -2 -4 -4 -2 -3 -2 2 2 3 0 -2 -1 -3 -8 -6 -2 -4 -5 -2 -0 -1 2 0
0 1 -1 -4 -3 1 -2 -2 2 8 -12 -5 -2 1 2 -1 -3 -4 2 3 3 1 -1 -4 -6 -6 -5 -2 0 6 1 -2 -3 -10 -5 0 -0 3 1 -0 -0 -2 -3 -2
-2 -3 -2 -3 -6 -4 7 -1 -1 1 -8 10 4 2 9 -2 -4 -3 2 -3 -3 -1 -0 -1 -2 -1 -3 -2 0 3 3 -0 -3 -2 0 -0 -3 3 2 3 1 1 -6 -1
-1 -6 -0 -2 -5 -10 11 -2 -2 1 2 0 3 -4 -1 5 -3 -8 -5 -4 -0 2 -0 1 0 -2 -2 -2 -3 1 2 -2 -1 -2 -3 -3 -2 -3 2 -2 -0 -5 -7 -6
-17 1 0 -3 -5 -5 -2 6 -2 -3 -2 -1 -3 -4 -3 -4 5 -1 -4 -6 -7 -6 -7 -5 -1 -3 -2 -3 0 1 -3 -1 0 0 -0 -3 -1 -2 2 -2 -2 -6 -7 -4
4 8 -7 -7 17 1 2 -4 -2 -0 4 -0 -2 -1 -5 -2 -5 2 2 -3 -5 -2 0 -3 -4 -4 -0 -1 -1 1 -2 -0 0 3 -0 -1 -3 -4 -0 -4 -2 -1 0 1
18 -1 14 -18 11 -2 -0 2 7 -5 -5 -4 -3 -2 -4 -7 1 -1 1 5 -4 -1 -4 -5 -3 -0 0 -2 -2 -2 2 -2 -1 7 -2 -4 -2 -4 -1 -5 -1 -4 -0 2
16 11 -16 7 2 -15 5 5 5 -9 -3 -1 -4 -6 4 -8 -4 -5 -4 -1 2 0 1 1 -2 5 1 -6 -2 -1 -2 -1 -1 5 5 -7 -3 -0 -2 -2 -5 -0 4 -3
Height
5703 5707 5714 5719 5718 5720 5723 5725 5729 5732 5735 5739 5744 5748 5756 5761 5767 5774 5781 5788 5795 5802 5806 5809 5811 5815 5820 5823 5827 5831 5835 5838 5841 5844 5845 5846 5848 5850 5852 5852 5853 5853 5854 5854
5693 5698 5706 5706 5708 5713 5717 5719 5722 5725 5728 5731 5736 5741 5748 5751 5757 5767 5773 5781 5787 5793 5798 5803 5805 5808 5812 5814 5817 5819 5826 5829 5834 5837 5839 5841 5843 5844 5847 5847 5848 5849 5850 5851
5684 5691 5694 5697 5701 5705 5709 5712 5715 5719 5721 5723 5727 5731 5738 5745 5749 5755 5763 5772 5778 5785 5791 5796 5798 5801 5803 5804 5806 5807 5812 5816 5824 5829 5833 5835 5838 5838 5840 5842 5843 5843 5843 5845
5672 5676 5682 5687 5691 5696 5701 5705 5707 5711 5714 5716 5719 5723 5728 5736 5743 5747 5753 5761 5770 5777 5783 5788 5791 5794 5795 5796 5798 5802 5803 5812 5817 5822 5826 5829 5831 5833 5834 5836 5836 5836 5837 5838
5664 5669 5674 5678 5685 5688 5694 5695 5699 5703 5707 5709 5712 5715 5722 5727 5734 5742 5746 5753 5761 5768 5774 5779 5783 5775 5782 5789 5795 5797 5802 5807 5812 5816 5819 5822 5823 5825 5827 5829 5828 5829 5830 5831
5651 5657 5663 5669 5674 5679 5683 5687 5692 5695 5699 5703 5705 5707 5713 5718 5725 5730 5738 5745 5753 5760 5767 5771 5775 5777 5783 5786 5788 5792 5797 5801 5804 5808 5810 5813 5814 5816 5818 5819 5820 5821 5822 5823
5640 5647 5653 5658 5664 5667 5673 5678 5683 5686 5689 5695 5699 5699 5700 5707 5711 5717 5722 5729 5737 5745 5753 5758 5763 5769 5773 5777 5781 5785 5787 5790 5792 5797 5800 5802 5805 5806 5807 5810 5812 5812 5814 5815
5630 5637 5642 5648 5654 5660 5665 5670 5675 5677 5681 5688 5691 5691 5692 5698 5703 5707 5713 5718 5726 5732 5739 5746 5751 5755 5761 5766 5771 5773 5776 5781 5782 5784 5787 5790 5795 5797 5797 5800 5801 5800 5803 5806
5619 5624 5631 5636 5643 5648 5653 5658 5666 5669 5671 5676 5681 5685 5686 5690 5695 5699 5705 5710 5715 5721 5727 5734 5741 5748 5752 5756 5759 5761 5763 5766 5771 5774 5777 5780 5784 5786 5787 5788 5790 5791 5792 5796
5607 5613 5619 5625 5631 5636 5642 5651 5655 5657 5660 5665 5671 5677 5679 5680 5686 5692 5696 5701 5706 5712 5718 5724 5730 5736 5742 5747 5750 5752 5754 5757 5762 5764 5766 5769 5772 5774 5775 5777 5779 5779 5781 5784
5594 5602 5608 5613 5618 5624 5630 5635 5642 5648 5652 5655 5661 5668 5672 5673 5678 5683 5688 5693 5697 5702 5707 5712 5719 5725 5730 5734 5738 5742 5746 5751 5753 5756 5758 5761 5761 5760 5760 5764 5766 5768 5770 5774
5581 5589 5595 5600 5606 5613 5619 5625 5631 5636 5642 5646 5650 5656 5662 5667 5669 5674 5679 5684 5688 5693 5697 5702 5707 5712 5717 5721 5724 5728 5732 5739 5743 5745 5746 5748 5750 5752 5751 5752 5754 5757 5760 5764
5571 5576 5583 5589 5595 5600 5606 5612 5618 5624 5630 5633 5639 5643 5651 5657 5662 5665 5670 5674 5679 5683 5687 5692 5697 5701 5706 5711 5715 5719 5723 5726 5731 5731 5734 5737 5738 5740 5740 5741 5743 5746 5750 5753
5559 5565 5571 5578 5583 5590 5595 5600 5606 5612 5618 5621 5626 5632 5638 5644 5651 5655 5659 5664 5669 5673 5677 5681 5686 5691 5695 5700 5705 5709 5712 5716 5720 5721 5723 5725 5729 5727 5729 5731 5733 5736 5740 5743
5549 5554 5559 5565 5570 5576 5582 5588 5594 5599 5604 5610 5616 5620 5626 5631 5637 5643 5647 5651 5657 5662 5667 5670 5674 5679 5684 5689 5693 5697 5701 5704 5707 5711 5714 5718 5718 5721 5723 5723 5724 5727 5730 5734
5537 5543 5548 5553 5557 5563 5569 5575 5581 5586 5591 5597 5602 5607 5613 5618 5622 5628 5634 5639 5644 5648 5654 5660 5664 5667 5671 5676 5681 5685 5690 5693 5697 5699 5701 5704 5706 5707 5712 5715 5717 5718 5722 5726
5526 5528 5533 5539 5544 5549 5554 5561 5568 5572 5578 5584 5589 5594 5599 5604 5610 5615 5620 5625 5630 5634 5639 5645 5652 5656 5660 5664 5668 5671 5676 5681 5685 5688 5691 5693 5695 5699 5702 5705 5705 5704 5710 5715
5514 5516 5519 5523 5529 5530 5539 5548 5553 5557 5563 5569 5575 5581 5584 5589 5594 5599 5605 5610 5616 5621 5626 5630 5636 5643 5648 5652 5656 5660 5663 5667 5672 5676 5678 5681 5684 5687 5690 5693 5695 5697 5700 5704
5502 5504 5506 5508 5513 5520 5525 5532 5538 5541 5547 5554 5560 5566 5571 5575 5579 5584 5590 5596 5602 5606 5610 5616 5621 5627 5634 5640 5644 5648 5650 5654 5658 5661 5664 5668 5672 5675 5677 5680 5683 5685 5687 5691
5489 5490 5493 5497 5499 5503 5510 5516 5521 5526 5529 5536 5542 5548 5553 5557 5561 5567 5573 5578 5584 5590 5596 5600 5605 5610 5617 5624 5630 5634 5637 5640 5643 5647 5651 5655 5659 5662 5665 5668 5670 5672 5676 5678
5474 5475 5478 5479 5482 5488 5496 5499 5503 5508 5519 5520 5524 5530 5536 5539 5544 5551 5555 5559 5564 5570 5577 5584 5588 5593 5599 5606 5613 5618 5623 5627 5631 5635 5639 5643 5646 5649 5652 5656 5658 5661 5663 5666
5463 5462 5465 5466 5466 5474 5481 5483 5487 5491 5494 5500 5505 5509 5515 5521 5524 5530 5535 5540 5545 5551 5557 5563 5570 5576 5581 5587 5594 5600 5608 5614 5618 5621 5625 5628 5632 5635 5640 5643 5646 5648 5651 5653
5451 5453 5452 5453 5455 5460 5462 5467 5468 5471 5475 5479 5485 5492 5496 5501 5507 5512 5516 5521 5525 5529 5535 5541 5548 5555 5561 5567 5573 5581 5589 5597 5602 5606 5609 5614 5617 5622 5626 5629 5633 5635 5637 5639
5436 5438 5438 5435 5448 5445 5446 5448 5453 5458 5460 5461 5464 5469 5476 5482 5486 5493 5498 5503 5507 5511 5516 5521 5528 5534 5539 5544 5550 5560 5569 5577 5585 5589 5593 5597 5602 5607 5612 5616 5620 5622 5625 5628
5422 5418 5423 5423 5427 5427 5433 5436 5438 5438 5440 5444 5447 5451 5456 5462 5468 5473 5479 5484 5488 5492 5496 5500 5507 5512 5517 5521 5528 5538 5547 5555 5564 5571 5575 5580 5586 5592 5597 5601 5607 5610 5613 5616
5399 5403 5403 5408 5409 5409 5419 5420 5421 5421 5425 5428 5432 5437 5442 5447 5451 5454 5460 5464 5469 5474 5478 5481 5485 5489 5494 5500 5506 5516 5525 5533 5541 5549 5555 5562 5569 5575 5581 5586 5593 5596 5600 5600